GW0320 Weather Reports


time (UTC)temp
C
wind
direction
speed
KPH
gust
KPH
rain 1hr
cm
rain 24hr
cm
rain mn
cm
humidity
%
barometer
mb
20260906175138 34 169 0.0 0.0 0.00 0.00 0.00 59 1016.4
20260906174636 34 235 0.0 0.0 0.00 0.00 0.00 60 1016.1
20260906174131 34 275 0.0 0.0 0.00 0.00 0.00 58 1016.2
20260906173627 35 237 0.0 0.0 0.00 0.00 0.00 60 1016.2
20260906173122 35 320 0.0 0.0 0.00 0.00 0.00 58 1016.4
20260906172621 35 227 0.0 0.0 0.00 0.00 0.00 58 1016.4
20260906172117 35 217 0.0 0.0 0.00 0.00 0.00 59 1016.4
20260906171616 36 295 0.0 1.6 0.00 0.00 0.00 57 1016.7
20260906171113 35 230 0.0 0.0 0.00 0.00 0.00 58 1016.5
20260906170609 35 291 0.0 0.0 0.00 0.00 0.00 57 1016.7
20260906170108 35 256 0.0 0.0 0.00 0.00 0.00 58 1016.8
20260906165604 35 243 0.0 0.0 0.00 0.00 0.00 58 1016.9
20260906165059 35 265 0.0 0.0 0.00 0.00 0.00 60 1017.0
20260906164558 34 259 0.0 0.0 0.00 0.00 0.00 62 1017.0
20260906164054 33 240 0.0 0.0 0.00 0.00 0.00 62 1017.1
20260906163549 33 90 0.0 0.0 0.00 0.00 0.00 61 1017.1
20260906163045 33 35 0.0 0.0 0.00 0.00 0.00 63 1017.0
20260906162542 33 135 0.0 0.0 0.00 0.00 0.00 62 1017.1
20260906162037 32 123 0.0 0.0 0.00 0.00 0.00 64 1017.1
20260906161532 33 69 0.0 0.0 0.00 0.00 0.00 63 1016.8
20260906161031 33 75 0.0 0.0 0.00 0.00 0.00 64 1016.8
20260906160530 33 71 0.0 0.0 0.00 0.00 0.00 66 1017.0
20260906160029 33 79 0.0 0.0 0.00 0.00 0.00 64 1016.9
20260906155526 32 85 0.0 0.0 0.00 0.00 0.00 65 1017.0
20260906155023 33 221 0.0 0.0 0.00 0.00 0.00 63 1017.0
20260906154518 33 60 0.0 0.0 0.00 0.00 0.00 65 1016.8
20260906154016 33 63 0.0 0.0 0.00 0.00 0.00 66 1016.9
20260906153516 32 59 0.0 0.0 0.00 0.00 0.00 67 1016.4
20260906153011 32 55 0.0 0.0 0.00 0.00 0.00 69 1016.7
20260906152505 32 58 0.0 0.0 0.00 0.00 0.00 69 1016.5
20260906152004 32 59 0.0 0.0 0.00 0.00 0.00 70 1016.4
20260906151500 31 59 0.0 0.0 0.00 0.00 0.00 70 1016.4
20260906150955 31 59 0.0 0.0 0.00 0.00 0.00 70 1016.8
20260906150450 31 59 0.0 0.0 0.00 0.00 0.00 71 1016.4
20260906145950 30 59 0.0 0.0 0.00 0.00 0.00 73 1016.5
20260906145450 30 59 0.0 0.0 0.00 0.00 0.00 75 1016.8
20260906144944 30 59 0.0 0.0 0.00 0.00 0.00 75 1016.4
20260906144439 30 160 0.0 0.0 0.00 0.00 0.00 75 1016.5
20260906143934 28 63 0.0 0.0 0.00 0.00 0.00 77 1016.4
20260906143430 28 107 0.0 0.0 0.00 0.00 0.00 77 1016.7
20260906142925 28 137 0.0 0.0 0.00 0.00 0.00 79 1016.8
20260906142425 28 116 0.0 0.0 0.00 0.00 0.00 80 1016.7
20260906141920 27 77 0.0 0.0 0.00 0.00 0.00 80 1016.8
20260906141414 27 65 0.0 0.0 0.00 0.00 0.00 80 1016.8
20260906140908 27 85 0.0 0.0 0.00 0.00 0.00 83 1016.5
20260906140403 27 72 0.0 0.0 0.00 0.00 0.00 84 1016.5
20260906135901 26 64 0.0 0.0 0.00 0.00 0.00 85 1016.8
20260906135400 26 66 0.0 0.0 0.00 0.00 0.00 86 1016.8
20260906134856 26 63 0.0 0.0 0.00 0.00 0.00 86 1016.7
20260906134351 26 65 0.0 0.0 0.00 0.00 0.00 86 1016.8
20260906133846 26 68 0.0 0.0 0.00 0.00 0.00 87 1016.7
20260906133342 25 69 0.0 0.0 0.00 0.00 0.00 87 1016.4
20260906132837 25 63 0.0 0.0 0.00 0.00 0.00 89 1016.4
20260906132332 25 65 0.0 0.0 0.00 0.00 0.00 89 1016.4
20260906131828 25 65 0.0 0.0 0.00 0.00 0.00 90 1016.3
20260906131323 25 64 0.0 0.0 0.00 0.00 0.00 90 1016.2
20260906130819 25 64 0.0 0.0 0.00 0.00 0.00 90 1016.3
20260906130313 24 73 0.0 0.0 0.00 0.00 0.00 91 1016.3
20260906125812 24 74 0.0 0.0 0.00 0.00 0.00 91 1016.1
20260906125309 23 74 0.0 0.0 0.00 0.00 0.00 91 1016.0
20260906124804 23 78 0.0 0.0 0.00 0.00 0.00 92 1015.7
20260906124300 23 86 0.0 0.0 0.00 0.00 0.00 93 1015.8
20260906123759 23 200 0.0 0.0 0.00 0.00 0.00 93 1015.8
20260906123254 23 200 0.0 0.0 0.00 0.00 0.00 93 1015.8
20260906122754 23 200 0.0 0.0 0.00 0.00 0.00 93 1015.9
20260906122249 23 200 0.0 0.0 0.00 0.00 0.00 93 1015.7
20260906121745 23 200 0.0 0.0 0.00 0.00 0.00 93 1015.8
20260906121242 23 200 0.0 0.0 0.00 0.00 0.00 93 1015.8
20260906120737 23 200 0.0 0.0 0.00 0.00 0.00 93 1015.7
20260906120234 23 200 0.0 0.0 0.00 0.00 0.00 93 1015.4
20260906115729 23 200 0.0 0.0 0.00 0.00 0.00 93 1015.4
20260906115224 23 200 0.0 0.0 0.00 0.00 0.00 93 1015.4
20260906114723 23 200 0.0 0.0 0.00 0.00 0.00 94 1015.4
20260906114218 22 200 0.0 0.0 0.00 0.00 0.00 94 1015.2
20260906113713 23 200 0.0 0.0 0.00 0.00 0.00 94 1015.5
20260906113212 23 200 0.0 0.0 0.00 0.00 0.00 94 1015.3
20260906112707 23 200 0.0 0.0 0.00 0.00 0.00 94 1015.5
20260906112204 23 200 0.0 0.0 0.00 0.00 0.00 93 1015.4
20260906111703 23 200 0.0 0.0 0.00 0.00 0.00 93 1015.3
20260906111158 23 200 0.0 0.0 0.00 0.00 0.00 93 1015.4
20260906110653 23 200 0.0 0.0 0.00 0.00 0.00 93 1015.1
20260906110148 23 200 0.0 0.0 0.00 0.00 0.00 92 1015.2
20260906105648 23 200 0.0 0.0 0.00 0.00 0.00 92 1015.1
20260906105144 23 200 0.0 0.0 0.00 0.00 0.00 91 1015.2
20260906104643 23 200 0.0 0.0 0.00 0.00 0.00 91 1015.0
20260906104137 23 200 0.0 0.0 0.00 0.00 0.00 90 1015.3
20260906103635 23 200 0.0 0.0 0.00 0.00 0.00 90 1015.2
20260906103131 23 200 0.0 0.0 0.00 0.00 0.00 89 1015.2
20260906102626 23 200 0.0 0.0 0.00 0.00 0.00 90 1015.0
20260906102120 23 200 0.0 0.0 0.00 0.00 0.00 89 1014.9
20260906101615 23 200 0.0 0.0 0.00 0.00 0.00 89 1015.0
20260906101115 23 200 0.0 0.0 0.00 0.00 0.00 89 1015.2
20260906100610 23 200 0.0 0.0 0.00 0.00 0.00 89 1015.0
20260906100110 24 200 0.0 0.0 0.00 0.00 0.00 90 1015.0
20260906095610 24 200 0.0 0.0 0.00 0.00 0.00 89 1014.8
20260906095106 24 200 0.0 0.0 0.00 0.00 0.00 87 1014.9
20260906094604 24 200 0.0 0.0 0.00 0.00 0.00 87 1014.9
20260906094101 24 200 0.0 0.0 0.00 0.00 0.00 87 1015.0
20260906093556 24 200 0.0 0.0 0.00 0.00 0.00 87 1015.0
20260906093051 24 200 0.0 0.0 0.00 0.00 0.00 87 1014.9
20260906092546 24 200 0.0 0.0 0.00 0.00 0.00 87 1014.9
20260906092041 24 200 0.0 0.0 0.00 0.00 0.00 86 1014.9
20260906091537 24 200 0.0 0.0 0.00 0.00 0.00 86 1014.7
20260906091033 24 200 0.0 0.0 0.00 0.00 0.00 86 1014.8
20260906090528 25 200 0.0 0.0 0.00 0.00 0.00 87 1014.7
20260906090023 25 200 0.0 0.0 0.00 0.00 0.00 86 1014.8
20260906085521 25 200 0.0 0.0 0.00 0.00 0.00 86 1014.9
20260906085021 25 200 0.0 0.0 0.00 0.00 0.00 86 1014.5
20260906084516 25 200 0.0 0.0 0.00 0.00 0.00 86 1014.4
20260906084014 25 200 0.0 0.0 0.00 0.00 0.00 86 1014.6
20260906083511 25 200 0.0 0.0 0.00 0.00 0.00 86 1014.6
20260906083010 25 200 0.0 0.0 0.00 0.00 0.00 85 1014.6
20260906082505 25 200 0.0 0.0 0.00 0.00 0.00 86 1014.6
20260906082001 25 200 0.0 0.0 0.00 0.00 0.00 85 1014.5
20260906081456 25 200 0.0 0.0 0.00 0.00 0.00 84 1014.6
20260906080952 25 200 0.0 0.0 0.00 0.00 0.00 85 1014.6
20260906080448 25 200 0.0 0.0 0.00 0.00 0.00 85 1014.4
20260906075942 25 200 0.0 0.0 0.00 0.00 0.00 84 1014.6
20260906075437 25 200 0.0 0.0 0.00 0.00 0.00 84 1014.4
20260906074932 25 200 0.0 0.0 0.00 0.00 0.00 83 1014.3
20260906074427 26 200 0.0 0.0 0.00 0.00 0.00 82 1014.4
20260906073926 26 200 0.0 0.0 0.00 0.00 0.00 82 1014.5
20260906073421 26 200 0.0 0.0 0.00 0.00 0.00 80 1014.5
20260906072917 26 200 0.0 0.0 0.00 0.00 0.00 80 1014.4
20260906072412 26 200 0.0 0.0 0.00 0.00 0.00 80 1014.6
20260906071908 26 201 0.0 0.0 0.00 0.00 0.00 81 1014.6
20260906071404 26 201 0.0 0.0 0.00 0.00 0.00 80 1014.5
20260906070859 26 201 0.0 0.0 0.00 0.00 0.00 81 1014.8
20260906070355 26 200 0.0 0.0 0.00 0.00 0.00 81 1014.8
20260906065850 26 200 0.0 0.0 0.00 0.00 0.00 81 1014.8
20260906065344 26 200 0.0 0.0 0.00 0.00 0.00 82 1015.0
20260906064840 26 200 0.0 0.0 0.00 0.00 0.00 82 1014.8
20260906064337 26 200 0.0 0.0 0.00 0.00 0.00 81 1014.9
20260906063831 26 199 0.0 0.0 0.00 0.00 0.00 80 1014.9
20260906063326 26 199 0.0 0.0 0.00 0.00 0.00 80 1015.0
20260906062821 26 199 0.0 0.0 0.00 0.00 0.00 79 1014.8
20260906062320 26 199 0.0 0.0 0.00 0.00 0.00 78 1014.9
20260906061816 27 199 0.0 0.0 0.00 0.00 0.00 77 1014.7
20260906061313 27 199 0.0 0.0 0.00 0.00 0.00 77 1015.0
20260906060812 27 199 0.0 0.0 0.00 0.00 0.00 77 1014.9
20260906060311 27 199 0.0 0.0 0.00 0.00 0.00 78 1015.0
20260906055806 27 199 0.0 0.0 0.00 0.00 0.00 78 1015.1
20260906055301 26 199 0.0 0.0 0.00 0.00 0.00 78 1015.1
20260906054756 26 199 0.0 0.0 0.00 0.00 0.00 78 1014.9
20260906054252 27 199 0.0 0.0 0.00 0.00 0.00 78 1014.8
20260906053748 27 199 0.0 0.0 0.00 0.00 0.00 78 1014.8
20260906053244 27 199 0.0 0.0 0.00 0.00 0.00 78 1015.2
20260906052738 27 199 0.0 0.0 0.00 0.00 0.00 78 1015.0
20260906052235 27 199 0.0 0.0 0.00 0.00 0.00 77 1015.1
20260906051731 27 199 0.0 0.0 0.00 0.00 0.00 77 1015.0
20260906051231 27 199 0.0 0.0 0.00 0.00 0.00 77 1014.9
20260906050726 27 199 0.0 0.0 0.00 0.00 0.00 77 1015.0
20260906050216 27 199 0.0 0.0 0.00 0.00 0.00 77 1015.1
20260906045714 27 199 0.0 0.0 0.00 0.00 0.00 76 1015.1
20260906045209 27 199 0.0 0.0 0.00 0.00 0.00 76 1015.0
20260906044705 27 199 0.0 0.0 0.00 0.00 0.00 76 1015.0
20260906044200 27 199 0.0 0.0 0.00 0.00 0.00 77 1015.0
20260906043656 27 198 0.0 0.0 0.00 0.00 0.00 77 1014.9
20260906043152 27 198 0.0 0.0 0.00 0.00 0.00 77 1015.1
20260906042651 27 197 0.0 0.0 0.00 0.00 0.00 78 1015.0
20260906042145 27 197 0.0 0.0 0.00 0.00 0.00 79 1014.8
20260906041641 27 197 0.0 0.0 0.00 0.00 0.00 79 1015.0
20260906041136 27 184 0.0 0.0 0.00 0.00 0.00 79 1015.1
20260906040631 27 135 0.0 0.0 0.00 0.00 0.00 79 1014.9
20260906040127 27 135 0.0 0.0 0.00 0.00 0.00 78 1014.8
20260906035622 27 135 0.0 0.0 0.00 0.00 0.00 78 1014.8
20260906035117 27 135 0.0 0.0 0.00 0.00 0.00 79 1014.8
20260906034612 27 135 0.0 0.0 0.00 0.00 0.00 79 1014.8
20260906034107 27 135 0.0 0.0 0.00 0.00 0.00 79 1014.7
20260906033602 27 135 0.0 0.0 0.00 0.00 0.00 80 1014.7
20260906033057 27 135 0.0 0.0 0.00 0.00 0.00 81 1014.6
20260906032554 27 135 0.0 0.0 0.00 0.00 0.00 81 1014.6
20260906032053 26 135 0.0 0.0 0.00 0.00 0.00 82 1014.4
20260906031549 26 135 0.0 0.0 0.00 0.00 0.00 83 1014.6
20260906031045 26 135 0.0 0.0 0.00 0.00 0.00 83 1014.6
20260906030544 27 135 0.0 0.0 0.00 0.00 0.00 82 1014.5
20260906030043 27 135 0.0 0.0 0.00 0.00 0.00 83 1014.3
20260906025538 27 135 0.0 0.0 0.00 0.00 0.00 82 1014.4
20260906025036 27 135 0.0 0.0 0.00 0.00 0.00 82 1014.1
20260906024532 27 135 0.0 0.0 0.00 0.00 0.00 82 1014.3
20260906024031 27 135 0.0 0.0 0.00 0.00 0.00 82 1014.1
20260906023528 27 135 0.0 0.0 0.00 0.00 0.00 82 1013.9
20260906023023 27 135 0.0 0.0 0.00 0.00 0.00 82 1013.8
20260906022518 27 135 0.0 0.0 0.00 0.00 0.00 83 1014.0
20260906022013 26 179 0.0 0.0 0.00 0.00 0.00 84 1013.5
20260906021508 26 180 0.0 0.0 0.00 0.00 0.00 83 1013.5
20260906021002 27 180 0.0 0.0 0.00 0.00 0.00 83 1013.8
20260906020456 27 180 0.0 0.0 0.00 0.00 0.00 83 1013.8
20260906015955 27 180 0.0 0.0 0.00 0.00 0.00 82 1013.7
20260906015450 27 180 0.0 0.0 0.00 0.00 0.00 82 1013.4
20260906014950 27 180 0.0 0.0 0.00 0.00 0.00 82 1013.5
20260906014449 27 180 0.0 0.0 0.00 0.00 0.00 81 1013.5
20260906013946 27 180 0.0 0.0 0.00 0.00 0.00 81 1013.2
20260906013441 27 179 0.0 0.0 0.00 0.00 0.00 81 1013.3
20260906012936 28 179 0.0 0.0 0.00 0.00 0.00 80 1013.2
20260906012431 28 179 0.0 0.0 0.00 0.00 0.00 80 1013.0
20260906011930 28 180 0.0 0.0 0.00 0.00 0.00 79 1013.1
20260906011426 28 180 0.0 0.0 0.00 0.00 0.00 79 1013.2
20260906010921 28 179 0.0 0.0 0.00 0.00 0.00 78 1013.2
20260906010417 28 180 0.0 0.0 0.00 0.00 0.00 78 1013.0
20260906005913 28 179 0.0 0.0 0.00 0.00 0.00 78 1013.1
20260906005412 29 179 0.0 0.0 0.00 0.00 0.00 77 1013.0
20260906004910 29 179 0.0 0.0 0.00 0.00 0.00 77 1013.0
20260906004405 30 179 0.0 0.0 0.00 0.00 0.00 77 1013.0
20260906003901 30 179 0.0 0.0 0.00 0.00 0.00 76 1013.0
20260906003356 30 179 0.0 0.0 0.00 0.00 0.00 75 1013.0
20260906002851 30 179 0.0 0.0 0.00 0.00 0.00 75 1013.1
20260906002350 30 179 0.0 0.0 0.00 0.00 0.00 74 1013.1
20260906001846 30 179 0.0 0.0 0.00 0.00 0.00 73 1013.1
20260906001342 31 179 0.0 0.0 0.00 0.00 0.00 73 1013.0
20260906000836 31 178 0.0 0.0 0.00 0.00 0.00 72 1013.0
20260906000333 31 178 0.0 0.0 0.00 0.00 0.00 72 1013.1
20260905235831 31 179 0.0 0.0 0.00 0.00 0.00 71 1013.0
20260905235326 32 136 0.0 0.0 0.00 0.00 0.00 70 1012.9
20260905234821 31 134 0.0 0.0 0.00 0.00 0.00 69 1012.9
20260905234316 32 141 0.0 0.0 0.00 0.00 0.00 69 1013.0
20260905233811 32 192 0.0 0.0 0.00 0.00 0.00 68 1013.1
20260905233306 32 192 0.0 0.0 0.00 0.00 0.00 67 1013.1
20260905232805 32 193 0.0 0.0 0.00 0.00 0.00 68 1012.8
20260905232305 32 193 0.0 0.0 0.00 0.00 0.00 67 1012.8
20260905231757 33 193 0.0 0.0 0.00 0.00 0.00 66 1013.0
20260905231252 33 193 0.0 0.0 0.00 0.00 0.00 64 1013.0
20260905230748 33 192 0.0 0.0 0.00 0.00 0.00 62 1012.9
20260905230246 34 193 0.0 0.0 0.00 0.00 0.00 59 1012.9
20260905225745 35 192 0.0 0.0 0.00 0.00 0.00 59 1012.9
20260905225241 35 106 0.0 0.0 0.00 0.00 0.00 57 1013.1
20260905224739 35 249 0.0 0.0 0.00 0.00 0.00 54 1012.8
20260905224236 36 251 0.0 0.0 0.00 0.00 0.00 51 1012.9
20260905223731 36 251 0.0 0.0 0.00 0.00 0.00 46 1012.8
20260905223228 36 251 0.0 0.0 0.00 0.00 0.00 48 1012.8
20260905222724 36 189 0.0 0.0 0.00 0.00 0.00 47 1012.8
20260905222223 36 184 0.0 0.0 0.00 0.00 0.00 46 1012.9
20260905221719 37 185 0.0 0.0 0.00 0.00 0.00 45 1013.1
20260905221216 37 159 0.0 0.0 0.00 0.00 0.00 46 1013.0
20260905220711 37 196 0.0 0.0 0.00 0.00 0.00 46 1013.0
20260905220207 37 265 0.0 0.0 0.00 0.00 0.00 40 1012.9
20260905215706 37 245 0.0 0.0 0.00 0.00 0.00 43 1012.8
20260905215202 36 318 0.0 0.0 0.00 0.00 0.00 44 1013.0
20260905214658 36 279 0.0 0.0 0.00 0.00 0.00 45 1013.0
20260905214153 36 186 0.0 0.0 0.00 0.00 0.00 49 1013.3
20260905213648 36 302 0.0 0.0 0.00 0.00 0.00 45 1013.4
20260905213144 37 60 0.0 0.0 0.00 0.00 0.00 48 1013.4
20260905212639 38 218 0.0 0.0 0.00 0.00 0.00 46 1013.3
20260905212138 38 204 0.0 0.0 0.00 0.00 0.00 42 1013.3
20260905211633 37 234 0.0 0.0 0.00 0.00 0.00 44 1013.9
20260905211128 37 8 0.0 0.0 0.00 0.00 0.00 46 1013.4
20260905210625 36 232 0.0 0.0 0.00 0.00 0.00 46 1013.5
20260905210119 37 213 0.0 0.0 0.00 0.00 0.00 47 1013.5
20260905205619 37 347 0.0 1.6 0.00 0.00 0.00 44 1013.5
20260905205118 38 228 0.0 0.0 0.00 0.00 0.00 43 1013.8
20260905204618 38 262 0.0 0.0 0.00 0.00 0.00 41 1013.9
20260905204113 37 197 0.0 0.0 0.00 0.00 0.00 45 1013.8
20260905203608 37 229 0.0 0.0 0.00 0.00 0.00 45 1013.9
20260905203103 37 240 0.0 0.0 0.00 0.00 0.00 43 1013.9
20260905202558 37 197 0.0 0.0 0.00 0.00 0.00 47 1014.3
20260905202054 37 26 0.0 0.0 0.00 0.00 0.00 48 1014.1
20260905201549 37 219 0.0 0.0 0.00 0.00 0.00 47 1014.2
20260905201049 36 226 0.0 0.0 0.00 0.00 0.00 47 1014.4
20260905200544 37 171 0.0 0.0 0.00 0.00 0.00 47 1014.5
20260905200038 37 284 0.0 0.0 0.00 0.00 0.00 42 1014.6
20260905195532 38 234 0.0 0.0 0.00 0.00 0.00 42 1014.5
20260905195027 38 286 1.6 3.2 0.00 0.00 0.00 42 1014.6
20260905194522 38 265 0.0 0.0 0.00 0.00 0.00 44 1014.5
20260905194021 38 207 0.0 0.0 0.00 0.00 0.00 43 1014.8
20260905193516 38 302 0.0 0.0 0.00 0.00 0.00 43 1014.7
20260905193011 38 197 0.0 1.6 0.00 0.00 0.00 44 1015.0
20260905192506 37 307 0.0 0.0 0.00 0.00 0.00 42 1014.8
20260905192003 37 230 0.0 0.0 0.00 0.00 0.00 45 1014.8
20260905191501 38 311 0.0 0.0 0.00 0.00 0.00 42 1015.0
20260905191000 38 344 0.0 0.0 0.00 0.00 0.00 43 1014.8
20260905190458 37 185 0.0 0.0 0.00 0.00 0.00 48 1015.1
20260905185957 37 21 0.0 0.0 0.00 0.00 0.00 45 1015.1
20260905185453 37 280 0.0 0.0 0.00 0.00 0.00 45 1015.0
20260905184951 37 44 0.0 0.0 0.00 0.00 0.00 46 1015.0
20260905184446 37 162 0.0 0.0 0.00 0.00 0.00 46 1014.9
20260905183945 37 51 0.0 1.6 0.00 0.00 0.00 44 1015.0
20260905183439 37 224 0.0 0.0 0.00 0.00 0.00 47 1015.2
20260905182935 37 246 1.6 4.8 0.00 0.00 0.00 46 1015.4
20260905182434 37 290 0.0 0.0 0.00 0.00 0.00 45 1015.3
20260905181929 37 275 1.6 1.6 0.00 0.00 0.00 47 1015.5
20260905181429 38 45 0.0 0.0 0.00 0.00 0.00 45 1015.4
20260905180928 38 245 0.0 0.0 0.00 0.00 0.00 44 1015.6
20260905180423 37 266 0.0 0.0 0.00 0.00 0.00 46 1015.6
20260905175918 37 225 0.0 0.0 0.00 0.00 0.00 49 1015.7